Burgas, Bulgaria

10:46 AM EET on November 20, 2018 (GMT +0200)
Burgas

Weather History for LBBG - November, 2018

Change the Weather History Date:

Tuesday, November 20, 2018

  Actual Average Record
Temperature  
Mean Temperature 40 °F -  
Max Temperature 44 °F 51 °F 71 °F (2003)
Min Temperature 37 °F 38 °F 24 °F (2011)
Degree Days  
Heating Degree Days 24    
Moisture  
Dew Point 35 °F    
Average Humidity 88    
Maximum Humidity 93    
Minimum Humidity 77    
Precipitation  
Precipitation 0.00 in - - ()
Sea Level Pressure  
Sea Level Pressure 30.18 in    
Wind  
Wind Speed 5 mph ()    
Max Wind Speed 18 mph    
Max Gust Speed -    
Visibility 6.9 miles    
Events      
Averages and records for this station are not official NWS values.
T = Trace of Precipitation, MM = Missing Value Source: Averaged Metar Reports

Daily Weather History Graph

Daily Weather History Graph

Search for Another Location

Airport or City:

Astronomy

Nov. 20, 2018 Rise Set
Actual Time 7:06 AM EET 4:43 PM EET
Civil Twilight 6:36 AM EET 5:14 PM EET
Nautical Twilight 6:01 AM EET 5:48 PM EET
Astronomical Twilight 5:28 AM EET 6:22 PM EET
Moon 3:33 PM EET 3:35 AM EET
Length of Visible Light 10h 38m
Length of Day
9h 36m
Waxing Gibbous, 91% of the Moon is Illuminated
Today
Waxing Gibbous
Nov 23
Full
Nov 30
Last Quarter
Dec 7
New
Dec 15
First Quarter

Hourly Weather History & Observations

Time (EET) Temp. Windchill Dew Point Humidity Pressure Visibility Wind Dir Wind Speed Gust Speed Precip Events Conditions
12:00 AM 37.4 °F 32.1 °F 32.0 °F 81% 30.12 in - SW 6.9 mph - N/A   Clear
12:30 AM 35.6 °F 32.8 °F 33.8 °F 93% 30.12 in - NW 3.5 mph - N/A   Clear
1:00 AM 35.6 °F 32.8 °F 33.8 °F 93% 30.12 in - WNW 3.5 mph - N/A   Clear
1:30 AM 35.6 °F - 33.8 °F 93% 30.15 in - West 2.3 mph - N/A   Clear
2:00 AM 38 °F - 35 °F 84% 30.15 in 11 mi NW 4.5 mph - -   Scattered Clouds
2:00 AM 33.8 °F - 32.0 °F 93% 30.15 in - WNW 2.3 mph - N/A   Clear
2:30 AM 33.8 °F 30.8 °F 32.0 °F 93% 30.15 in 6.2 mi NNE 3.5 mph - N/A   Partly Cloudy
3:00 AM 33.8 °F - 32.0 °F 93% 30.15 in 6.2 mi Variable 1.2 mph - N/A   Scattered Clouds
3:30 AM 33.8 °F - 32.0 °F 93% 30.18 in 6.2 mi Variable 2.3 mph - N/A   Scattered Clouds
4:00 AM 35.6 °F 30.7 °F 33.8 °F 93% 30.18 in 6.2 mi North 5.8 mph - N/A   Overcast
4:30 AM 37.4 °F 32.8 °F 33.8 °F 87% 30.15 in 6.2 mi NE 5.8 mph - N/A   Overcast
5:00 AM 39 °F - 35 °F 78% 30.17 in 11 mi Calm Calm - -   Overcast
5:00 AM 37.4 °F 32.1 °F 35.6 °F 93% 30.15 in 6.2 mi ENE 6.9 mph - N/A   Overcast
5:30 AM 39.2 °F 33.0 °F 35.6 °F 87% 30.18 in 6.2 mi ENE 9.2 mph - N/A   Overcast
6:00 AM 39.2 °F 32.0 °F 35.6 °F 87% 30.18 in 6.2 mi NE 11.5 mph - N/A   Overcast
6:30 AM 39.2 °F 32.5 °F 35.6 °F 87% 30.18 in 6.2 mi NE 10.4 mph - N/A   Overcast
7:00 AM 39.2 °F 34.2 °F 35.6 °F 87% 30.21 in 6.2 mi NE 6.9 mph - N/A   Overcast
7:30 AM 39.2 °F 34.2 °F 37.4 °F 93% 30.21 in 6.2 mi NE 6.9 mph - N/A   Overcast
8:00 AM 44 °F - 39 °F 77% 30.22 in 11 mi North 17.9 mph - -   Overcast
8:00 AM 41.0 °F 34.7 °F 37.4 °F 87% 30.21 in 6.2 mi NE 10.4 mph - N/A   Overcast
8:30 AM 41.0 °F 34.7 °F 37.4 °F 87% 30.21 in 6.2 mi NE 10.4 mph - N/A   Overcast
9:00 AM 41.0 °F 34.7 °F 37.4 °F 87% 30.24 in 6.2 mi NE 10.4 mph - N/A   Overcast
9:30 AM 41.0 °F 34.7 °F 37.4 °F 87% 30.21 in 6.2 mi NE 10.4 mph - N/A   Overcast
10:00 AM 42.8 °F 37.5 °F 37.4 °F 81% 30.24 in 6.2 mi NE 9.2 mph - N/A   Overcast
10:30 AM 42.8 °F 37.5 °F 37.4 °F 81% 30.21 in 6.2 mi NE 9.2 mph - N/A   Overcast